This is the latest recevied weather packets stored in our database for station/object KD9JJA. If no packets are shown the sender has not sent any weather packets the latest 10 day(s).
| Time | Temp. | Humidity | Pressure | Rain* | Wind** | Luminosity | Snow |
|---|---|---|---|---|---|---|---|
| 1777131268 | 17.78° C | 88% | 1014.6 hPa | 0 mm | - | 135 W/m² | - |
| 1777130963 | 17.78° C | 89% | 1014.6 hPa | 0 mm | - | 93 W/m² | - |
| 1777130658 | 17.78° C | 88% | 1014.6 hPa | 0 mm | - | 70 W/m² | - |
| 1777130355 | 17.78° C | 89% | 1014.7 hPa | 0 mm | - | 86 W/m² | - |
| 1777130052 | 17.78° C | 89% | 1014.7 hPa | 0 mm | - | 86 W/m² | - |
| 1777129748 | 17.78° C | 88% | 1014.7 hPa | 0 mm | - | 108 W/m² | - |
| 1777129443 | 17.78° C | 88% | 1014.7 hPa | 0 mm | - | 89 W/m² | - |
| 1777129142 | 17.78° C | 89% | 1014.8 hPa | 0 mm | - | 121 W/m² | - |
| 1777128837 | 17.78° C | 89% | 1014.7 hPa | 0 mm | - | 151 W/m² | - |
| 1777128535 | 17.22° C | 89% | 1014.5 hPa | 0 mm | - | 209 W/m² | - |
| 1777128231 | 17.22° C | 90% | 1014.6 hPa | 0 mm | - | 110 W/m² | - |
| 1777127929 | 17.78° C | 90% | 1014.5 hPa | 0 mm | - | 93 W/m² | - |
| 1777127626 | 17.78° C | 89% | 1014.5 hPa | 0 mm | - | 104 W/m² | - |
| 1777127323 | 17.78° C | 90% | 1014.5 hPa | 0 mm | - | 276 W/m² | - |
| 1777127019 | 17.22° C | 90% | 1014.3 hPa | 0 mm | - | 166 W/m² | - |
| 1777126715 | 17.22° C | 89% | 1014.3 hPa | 0 mm | - | 81 W/m² | - |
| 1777126412 | 17.78° C | 91% | 1014 hPa | 0 mm | - | 162 W/m² | - |
| 1777126107 | 17.22° C | 93% | 1014 hPa | 0 mm | - | 404 W/m² | - |
| 1777125804 | 16.67° C | 95% | 1014.1 hPa | 0 mm | - | 229 W/m² | - |
| 1777125500 | 16.11° C | 96% | 1014 hPa | 0 mm | - | 366 W/m² | - |
| 1777125200 | 15.56° C | 98% | 1013.9 hPa | 0 mm | - | 163 W/m² | - |
| 1777124895 | 15.56° C | 99% | 1013.7 hPa | 0 mm | - | 373 W/m² | - |
| 1777124592 | 15.56° C | 99% | 1013.8 hPa | 0 mm | - | 383 W/m² | - |
| 1777124288 | 15.56° C | 99% | 1013.9 hPa | 0 mm | - | 360 W/m² | - |
| 1777123985 | 15.56° C | 99% | 1014 hPa | 0 mm | - | 326 W/m² | - |
* Rain latest hour (hover to see other rain measurements)
** Current wind speed in m/s (hover to see current wind gust speed)